Location: Fort Worth, Tx
(32.7431°N, 97.3695°W)
Time: 13:13:12
(UTC-04:00)

Envisat - Visible Passes

Search period start: 31 May 2023 00:00
Search period end: 10 June 2023 00:00
Orbit: 763 x 765 km, 98.2° (Epoch: 31 May)

Date Brightness Start Highest point End Pass type
(mag) Time Alt. Az. Time Alt. Az. Time Alt. Az.
31 May 4.9 05:27:15 10° NE 05:31:22 25° E 05:35:27 10° SSE visible
01 Jun 3.0 06:28:15 10° N 06:33:19 73° WNW 06:38:21 10° SSW visible
02 Jun 4.0 05:51:20 10° NNE 05:56:10 45° E 06:01:00 10° S visible
03 Jun 5.3 05:15:23 10° NE 05:18:51 18° E 05:22:19 10° SE visible
04 Jun 3.0 06:15:49 10° NNE 06:20:55 84° ESE 06:25:58 10° S visible
05 Jun 4.5 05:39:09 10° NNE 05:43:43 33° E 05:48:15 10° SSE visible
06 Jun 5.5 05:03:52 10° ENE 05:06:21 14° E 05:08:48 10° ESE visible
06 Jun 3.2 06:40:38 10° N 06:45:34 53° WNW 06:50:28 10° SSW visible
07 Jun 3.4 06:03:27 10° NNE 06:08:30 62° ESE 06:13:29 10° S visible
08 Jun 4.9 05:27:04 10° NE 05:31:14 25° E 05:35:21 10° SSE visible
09 Jun 3.0 06:28:07 10° N 06:33:10 72° WNW 06:38:12 10° SSW visible
